STARLINK-5851 (55947 NORAD) Tracking and Keplerian Element Data

This shows tracking and keplerian element data for the satellite.

Feedback or suggestion? Click here.




ElementValue
Catalog55947
NameSTARLINK-5851
Epoch Orbit839
Epoch Day126.86731715
Epoch Year2023
RAAN40.2066
Inclination69.9975
Eccentricity0.0003961
Argument of Perigee266.4246
Mean Anonmoly93.6496
Mean Motion15.69936115
Decay Rate2.97E-06
L11 55947U 23037AK 23126.86731715 .00000297 00000+0 42422-5 0 9993
L22 55947 69.9975 40.2066 0003961 266.4246 93.6496 15.69936115 8397



Live tracking and technical data element details for STARLINK-5851 (NORAD 55947). STARLINK-5851 can be tracked NOW for your location showing map with azimuth and elevation plus other details from your city location.







IsCatalogInMostPopularTable: catalog: 55947, numindb: 9
Update: records affected: 1



GetName: 55947 STARLINK-5851

Hit Count: updated at: Tue, 06 Jun 2023 04:04:53 GMT